User: anonymous   Login
Location: Asheville, NC
(35.6000°N, 82.5500°W)
Time: 18:29:39
(UTC-04:00)
Language:

DOVE 4 - Orbit

View from above orbital plane
View from above orbital plane
View from above satellite
View from above satellite

Ground track
Ground track

The orbit data is extracted from the following two-line orbital elements,

1 39430U 13066Q   18289.40880786  .00000316  00000-0  66709-4 0  9996
2 39430  97.7112 257.6381 0150693 308.4333  50.3425 14.59142198260830
Epoch (UTC): 16 October 2018 09:48:40
Eccentricity: 0.0150693
inclination: 97.7112°
perigee height: 589 km
apogee height: 802 km
right ascension of ascending node: 257.6381°
argument of perigee: 308.4333°
revolutions per day: 14.59142198
mean anomaly at epoch: 50.3425°
orbit number at epoch: 26083

The dashed part of the orbit path shows where the satellite is in the earth's shadow,  

DLR